Villa Grove, CO

6:12 AM MDT on September 30, 2016 (GMT -0600)
Monarch Pass

Weather History for KMYP - March, 2014

Change the Weather History Date:

Saturday, March 29, 2014

  Actual Average (KGUC) Record (KGUC)
Temperature  
Mean Temperature 22 °F -  
Max Temperature 30 °F 47 °F 64 °F (2015)
Min Temperature 14 °F 20 °F 8 °F (2003)
Degree Days  
Heating Degree Days 43    
Moisture  
Dew Point 8 °F    
Average Humidity 56    
Maximum Humidity 67    
Minimum Humidity 47    
Precipitation  
Precipitation 0.00 in - - ()
Sea Level Pressure  
Sea Level Pressure 30.36 in    
Wind  
Wind Speed 30 mph (WSW)    
Max Wind Speed 47 mph    
Max Gust Speed 59 mph    
Visibility 10 miles    
Events Snow    
Averages and records for this station are not official NWS values.
T = Trace of Precipitation, MM = Missing Value Source: NWS Daily Summary

Daily Weather History Graph

Daily Weather History Graph

Search for Another Location

Airport or City:

Trip Planner

Search our weather history database for the weather conditions in past years. The results will help you decide how hot, cold, wet, or windy it might be!

Date:

Astronomy

Mar. 29, 2014 Rise Set
Actual Time 6:54 AM MDT 7:25 PM MDT
Civil Twilight 6:28 AM MDT 7:52 PM MDT
Nautical Twilight 5:56 AM MDT 8:23 PM MDT
Astronomical Twilight 5:24 AM MDT 8:56 PM MDT
Moon 6:04 AM MDT (3/29) 6:34 PM MDT (3/29)
Length of Visible Light 13h 24m
Length of Day
12h 31m
Waning Crescent, 1% of the Moon is Illuminated
Mar 29
Waning Crescent
Mar 30
New
Apr 7
First Quarter
Apr 15
Full
Apr 22
Last Quarter

Hourly Weather History & Observations

Time (MDT) Temp. Windchill Dew Point Humidity Pressure Visibility Wind Dir Wind Speed Gust Speed Precip Events Conditions
12:14 AM 17.6 °F 0.9 °F 3.2 °F 53% 30.40 in 10.0 mi West 20.7 mph 24.2 mph N/A   Clear
12:33 AM 14.0 °F -3.0 °F 5.0 °F 67% 30.40 in 10.0 mi SW 18.4 mph - N/A   Clear
12:51 AM 15.8 °F -2.3 °F 5.0 °F 62% 30.40 in 10.0 mi WSW 23.0 mph - N/A   Clear
1:12 AM 15.8 °F -3.1 °F 5.0 °F 62% 30.40 in 10.0 mi WSW 25.3 mph - N/A   Clear
1:34 AM 14.0 °F -5.8 °F 5.0 °F 67% 30.40 in 10.0 mi WSW 26.5 mph - N/A   Clear
1:54 AM 15.8 °F -5.0 °F 3.2 °F 58% 30.39 in 10.0 mi West 32.2 mph - N/A   Clear
2:11 AM 17.6 °F -1.0 °F 3.2 °F 53% 30.39 in 10.0 mi West 26.5 mph - N/A   Clear
2:31 AM 17.6 °F -0.6 °F 3.2 °F 53% 30.40 in 10.0 mi West 25.3 mph - N/A   Clear
2:50 AM 15.8 °F -3.4 °F 3.2 °F 58% 30.40 in 10.0 mi West 26.5 mph - N/A   Clear
3:10 AM 15.8 °F -3.4 °F 3.2 °F 58% 30.39 in 10.0 mi West 26.5 mph - N/A   Clear
3:28 AM 15.8 °F -2.7 °F 3.2 °F 58% 30.38 in 10.0 mi West 24.2 mph - N/A   Clear
3:49 AM 15.8 °F -3.1 °F 3.2 °F 58% 30.38 in 10.0 mi West 25.3 mph - N/A   Clear
4:15 AM 15.8 °F -2.3 °F 3.2 °F 58% 30.37 in 10.0 mi West 23.0 mph - N/A   Clear
4:34 AM 15.8 °F -2.7 °F 3.2 °F 58% 30.37 in 10.0 mi WSW 24.2 mph - N/A   Clear
4:55 AM 15.8 °F -3.1 °F 3.2 °F 58% 30.36 in 10.0 mi West 25.3 mph - N/A   Clear
5:15 AM 15.8 °F -2.7 °F 3.2 °F 58% 30.36 in 10.0 mi WSW 24.2 mph - N/A   Clear
5:28 AM 15.8 °F -3.7 °F 3.2 °F 58% 30.37 in 10.0 mi WSW 27.6 mph - N/A   Clear
5:48 AM 14.0 °F -6.8 °F 5.0 °F 67% 30.37 in 10.0 mi WSW 29.9 mph - N/A   Clear
6:08 AM 15.8 °F -4.4 °F 5.0 °F 62% 30.37 in 10.0 mi WSW 29.9 mph - N/A   Clear
6:33 AM 15.8 °F -4.7 °F 5.0 °F 62% 30.37 in 10.0 mi West 31.1 mph - N/A   Clear
6:54 AM 15.8 °F -5.0 °F 5.0 °F 62% 30.37 in 10.0 mi West 32.2 mph - N/A   Clear
7:15 AM 15.8 °F -5.0 °F 5.0 °F 62% 30.38 in 10.0 mi West 32.2 mph - N/A   Clear
7:34 AM 17.6 °F -3.1 °F 5.0 °F 58% 30.37 in 10.0 mi West 34.5 mph - N/A   Clear
7:53 AM 17.6 °F -3.1 °F 5.0 °F 58% 30.38 in 10.0 mi West 34.5 mph - N/A   Clear
8:15 AM 17.6 °F -3.3 °F 5.0 °F 58% 30.38 in 10.0 mi West 35.7 mph - N/A   Clear
8:33 AM 17.6 °F -3.1 °F 5.0 °F 58% 30.38 in 10.0 mi West 34.5 mph - N/A   Clear
8:55 AM 17.6 °F -3.3 °F 5.0 °F 58% 30.38 in 10.0 mi West 35.7 mph - N/A   Clear
9:11 AM 17.6 °F -3.8 °F 5.0 °F 58% 30.38 in 10.0 mi West 38.0 mph - N/A   Clear
9:33 AM 19.4 °F -1.1 °F 6.8 °F 58% 30.38 in 10.0 mi West 36.8 mph - N/A   Clear
9:49 AM 19.4 °F -1.3 °F 6.8 °F 58% 30.38 in 10.0 mi West 38.0 mph 43.7 mph N/A   Clear
10:11 AM 19.4 °F -1.3 °F 6.8 °F 58% 30.39 in 10.0 mi West 38.0 mph - N/A   Clear
10:35 AM 21.2 °F 0.7 °F 8.6 °F 58% 30.39 in 10.0 mi West 40.3 mph 47.2 mph N/A   Clear
10:53 AM 21.2 °F 0.9 °F 8.6 °F 58% 30.39 in 10.0 mi WSW 39.1 mph 50.6 mph N/A   Clear
11:08 AM 21.2 °F 1.4 °F 8.6 °F 58% 30.38 in 10.0 mi West 36.8 mph 47.2 mph N/A   Clear
11:34 AM 23.0 °F 3.7 °F 8.6 °F 54% 30.39 in 10.0 mi West 38.0 mph 44.9 mph N/A   Clear
11:52 AM 23.0 °F 2.6 °F 8.6 °F 54% 30.38 in 10.0 mi West 43.7 mph 49.5 mph N/A   Clear
12:10 PM 23.0 °F 2.8 °F 10.4 °F 59% 30.38 in 10.0 mi West 42.6 mph 48.3 mph N/A   Clear
12:35 PM 24.8 °F 5.7 °F 10.4 °F 54% 30.37 in 7.0 mi West 40.3 mph 49.5 mph N/A   Clear
12:53 PM 26.6 °F 8.1 °F 10.4 °F 51% 30.36 in 7.0 mi West 41.4 mph 50.6 mph N/A   Clear
1:09 PM 26.6 °F 7.9 °F 10.4 °F 51% 30.37 in 7.0 mi West 42.6 mph 52.9 mph N/A   Clear
1:34 PM 26.6 °F 8.5 °F 10.4 °F 51% 30.36 in 7.0 mi West 39.1 mph 51.8 mph N/A   Clear
1:54 PM 26.6 °F 8.7 °F 10.4 °F 51% 30.36 in 10.0 mi West 38.0 mph 51.8 mph N/A   Clear
2:06 PM 28.4 °F 11.4 °F 10.4 °F 47% 30.35 in 10.0 mi West 36.8 mph 48.3 mph N/A   Clear
2:33 PM 28.4 °F 9.7 °F 12.2 °F 51% 30.32 in 7.0 mi West 47.2 mph 52.9 mph N/A   Clear
2:54 PM 28.4 °F 11.2 °F 12.2 °F 51% 30.33 in 10.0 mi West 38.0 mph 51.8 mph N/A   Clear
3:15 PM 28.4 °F 9.7 °F 12.2 °F 51% 30.33 in 10.0 mi West 47.2 mph 51.8 mph N/A   Clear
3:35 PM 28.4 °F 9.8 °F 14.0 °F 55% 30.32 in 7.0 mi West 46.0 mph 55.2 mph N/A   Clear
3:53 PM 30.2 °F 12.9 °F 14.0 °F 51% 30.33 in 7.0 mi West 42.6 mph 54.1 mph N/A   Clear
4:15 PM 28.4 °F 9.7 °F 12.2 °F 51% 30.32 in 4.0 mi West 47.2 mph 58.7 mph N/A Snow Light Snow
4:30 PM 30.2 °F 13.5 °F 12.2 °F 47% 30.32 in 7.0 mi West 39.1 mph 56.4 mph N/A   Clear
4:53 PM 30.2 °F 13.3 °F 12.2 °F 47% 30.32 in 10.0 mi West 40.3 mph 56.4 mph N/A   Clear
5:15 PM 30.2 °F 13.9 °F 12.2 °F 47% 30.32 in 10.0 mi WSW 36.8 mph 47.2 mph N/A   Clear
5:32 PM 30.2 °F 14.3 °F 12.2 °F 47% 30.32 in 10.0 mi West 34.5 mph 47.2 mph N/A   Clear
5:47 PM 30.2 °F 14.9 °F 12.2 °F 47% 30.33 in 10.0 mi WSW 31.1 mph 44.9 mph N/A   Clear
6:11 PM 30.2 °F 14.3 °F 12.2 °F 47% 30.32 in 10.0 mi WSW 34.5 mph 41.4 mph N/A   Clear
6:35 PM 28.4 °F 12.0 °F 12.2 °F 51% 30.31 in 10.0 mi West 33.4 mph 40.3 mph N/A   Clear
6:53 PM 28.4 °F 13.3 °F 12.2 °F 51% 30.32 in 10.0 mi WSW 27.6 mph 34.5 mph N/A   Clear
7:13 PM 28.4 °F 13.0 °F 14.0 °F 55% 30.32 in 10.0 mi WSW 28.8 mph - N/A   Clear
7:34 PM 26.6 °F 10.0 °F 12.2 °F 55% 30.32 in 10.0 mi WSW 31.1 mph 36.8 mph N/A   Clear
7:55 PM 28.4 °F 12.0 °F 12.2 °F 51% 30.31 in 10.0 mi West 33.4 mph 38.0 mph N/A   Clear
8:08 PM 28.4 °F 12.5 °F 12.2 °F 51% 30.32 in 10.0 mi West 31.1 mph - N/A   Clear
8:22 PM 26.6 °F 10.6 °F 12.2 °F 55% 30.32 in 10.0 mi WSW 28.8 mph 38.0 mph N/A   Clear
8:46 PM 26.6 °F 10.3 °F 12.2 °F 55% 30.34 in 10.0 mi WSW 29.9 mph 38.0 mph N/A   Clear
9:15 PM 26.6 °F 10.8 °F 12.2 °F 55% 30.33 in 10.0 mi WSW 27.6 mph - N/A   Clear
9:34 PM 26.6 °F 10.3 °F 12.2 °F 55% 30.34 in 10.0 mi West 29.9 mph 35.7 mph N/A   Clear
9:52 PM 26.6 °F 10.0 °F 12.2 °F 55% 30.33 in 10.0 mi WSW 31.1 mph 35.7 mph N/A   Clear
10:12 PM 26.6 °F 9.8 °F 12.2 °F 55% 30.33 in 10.0 mi WSW 32.2 mph 35.7 mph N/A   Clear
10:33 PM 26.6 °F 10.6 °F 12.2 °F 55% 30.33 in 10.0 mi WSW 28.8 mph 36.8 mph N/A   Clear
10:52 PM 26.6 °F 9.8 °F 12.2 °F 55% 30.32 in 10.0 mi West 32.2 mph 38.0 mph N/A   Clear
11:11 PM 24.8 °F 6.8 °F 12.2 °F 59% 30.30 in 10.0 mi WSW 34.5 mph 39.1 mph N/A   Clear
11:30 PM 24.8 °F 7.6 °F 12.2 °F 59% 30.30 in 10.0 mi WSW 31.1 mph 36.8 mph N/A   Clear
11:47 PM 24.8 °F 7.6 °F 12.2 °F 59% 30.30 in 10.0 mi WSW 31.1 mph 35.7 mph N/A   Clear